Starlink 31415

operational
NORAD ID: 59419 Int'l Des: 2024-064 Owner: SPXS Country: US Constellation: starlink
LEOCIRCULAR

关于 Starlink 31415

正在加载描述...

实时位置

正在加载3D地球...

即将过境

高度历史

Altitude vs Time

uPlot chart will show altitude changes over time

两行轨道根数

1 59419U 24064X 26061.44861516 -.00000100 00000-0 58857-5 0 9994
2 59419 43.0022 97.4703 0001815 287.8833 72.1821 15.27575013108113
Epoch: Mar 2, 2026 • Age: 28 hours

当前状态

高度 492.1 km
速度 7.62 km/s
星下点 -35.56°S, 173.77°W
发射日期 Apr 5, 2024
运行时间 1.9 years
类型 internet

技术详情

分类 Payload
质量 730.00 kg
干质量 700.00 kg
总质量 730.00 kg
长度 0.30 m
直径 4.10 m
跨度 29.00 m
形状 Box + pan
制造商 SPXS
平台类型 Starlink V2M
阶段状态 In Orbit
所有者/国家 SPXS/US

大型星座

Loading constellations...